This demonstration page uses our WeatherBlox Daily Observations layout. Learn more.

38.89511, -77.03637

Hourly Observations for October 17, 2015

Temp ( °F °C ) Dew Point ( °F °C ) Humidity (%) Winds ( mph kmh ) Pressure ( in mb ) Visibility ( mi km ) Precip ( " mm )
12:52 am 00:52 Clear 52 11.1 35 1.7 53 53 S 8 13 30.13 1020 10 16.0934 0 0
1:52 am 01:52 Clear 50 10 37 2.8 61 61 WSW 5 7 30.12 1020 10 16.0934 0 0
2:52 am 02:52 Clear 48 8.9 36 2.2 63 63 SSW 6 9 30.13 1020 10 16.0934 0 0
3:52 am 03:52 Clear 48 8.9 36 2.2 63 63 SSW 3 6 30.13 1020 10 16.0934 0 0
4:52 am 04:52 Clear 50 10 36 2.2 59 59 Calm 30.14 1021 10 16.0934 0 0
5:09 am 05:09 Mostly Cloudy 50 10 36 2 58 58 Calm 30.15 1021 10 16.0934 0 0
5:52 am 05:52 Mostly Cloudy 50 10 36 2.2 59 59 NW 8 13 30.15 1021 10 16.0934 0 0
6:52 am 06:52 Mostly Cloudy 51 10.6 36 2.2 56 56 Calm 30.16 1021 10 16.0934 0 0
7:52 am 07:52 Partly Cloudy 50 10 37 2.8 61 61 WNW 3 6 30.17 1022 10 16.0934 0 0
8:52 am 08:52 Partly Cloudy 53 11.7 38 3.3 57 57 NNW 10 17 30.19 1023 10 16.0934 0 0
9:52 am 09:52 Partly Cloudy 56 13.3 38 3.3 51 51 W 12 19 30.21 1023 10 16.0934 0 0
10:52 am 10:52 Mostly Cloudy 56 13.3 37 2.8 49 49 NW 16 26 30.2 1023 10 16.0934 0 0
11:52 am 11:52 Mostly Cloudy 56 13.3 37 2.8 49 49 WNW 14 22 30.2 1023 10 16.0934 0 0
12:52 pm 12:52 Mostly Cloudy 55 12.8 35 1.7 47 47 NNW 15 24 30.19 1023 10 16.0934 0 0
1:52 pm 13:52 Mostly Cloudy 59 15 36 2.2 42 42 N 13 20 30.18 1022 10 16.0934 0 0
2:52 pm 14:52 Mostly Cloudy 57 13.9 30 -1.1 36 36 NW 15 24 30.17 1022 10 16.0934 0 0
3:52 pm 15:52 Mostly Cloudy 56 13.3 30 -1.1 37 37 NNW 18 30 30.19 1022 10 16.0934 0 0
4:52 pm 16:52 Partly Cloudy 55 12.8 31 -0.6 40 40 NNW 14 22 30.2 1023 10 16.0934 0 0
5:52 pm 17:52 Partly Cloudy 53 11.7 31 -0.6 43 43 NW 10 17 30.22 1024 10 16.0934 0 0
6:52 pm 18:52 Partly Cloudy 50 10 31 -0.6 48 48 WNW 13 20 30.24 1024 10 16.0934 0 0
7:52 pm 19:52 Partly Cloudy 49 9.4 28 -2.2 44 44 WNW 10 17 30.26 1025 10 16.0934 0 0
8:52 pm 20:52 Mostly Clear 48 8.9 28 -2.2 46 46 WNW 15 24 30.28 1025 10 16.0934 0 0
9:52 pm 21:52 Mostly Clear 47 8.3 27 -2.8 46 46 VRB 5 7 30.29 1026 10 16.0934 0 0
10:52 pm 22:52 Mostly Clear 46 7.8 27 -2.8 47 47 WNW 10 17 30.3 1026 10 16.0934 0 0
11:52 pm 23:52 Mostly Clear 45 7.2 28 -2.2 52 52 NW 12 19 30.31 1026 10 16.0934 0 0

Powered by AerisWeather